Time,TemperatureF,DewpointF,PressureIn,WindDirection,WindDirectionDegrees,WindSpeedMPH,WindSpeedGustMPH,Humidity,HourlyPrecipIn,Conditions,Clouds,dailyrainin,SolarRadiationWatts/m^2,SoftwareType,DateUTC
2013-10-28 00:04:00,40.0,39.0,-100.00,South,171,2.0,3.0,96,0.00,,,0.00,0.000000,,2013-10-28 04:04:00,
2013-10-28 00:14:00,40.0,39.0,-100.00,South,171,2.0,3.0,96,0.00,,,0.00,0.000000,,2013-10-28 04:14:00,
2013-10-28 00:43:00,39.0,38.0,-100.00,ENE,62,0.0,2.0,97,0.00,,,0.00,0.000000,,2013-10-28 04:43:00,
2013-10-28 00:53:00,39.0,38.0,-100.00,ENE,62,0.0,2.0,97,0.00,,,0.00,0.000000,,2013-10-28 04:53:00,
2013-10-28 01:04:00,39.0,38.0,-100.00,ENE,62,0.0,2.0,97,0.00,,,0.00,0.000000,,2013-10-28 05:04:00,
2013-10-28 01:13:00,39.0,38.0,-100.00,ENE,62,0.0,2.0,97,0.00,,,0.00,0.000000,,2013-10-28 05:13:00,
2013-10-28 01:43:00,38.0,38.0,-100.00,SE,134,0.0,2.0,99,0.00,,,0.00,0.000000,,2013-10-28 05:43:00,
2013-10-28 01:53:00,38.0,38.0,-100.00,SE,134,0.0,2.0,99,0.00,,,0.00,0.000000,,2013-10-28 05:53:00,
2013-10-28 02:03:00,38.0,38.0,-100.00,SE,134,0.0,2.0,99,0.00,,,0.00,0.000000,,2013-10-28 06:03:00,
2013-10-28 02:13:00,38.0,38.0,-100.00,SE,134,0.0,2.0,99,0.00,,,0.00,0.000000,,2013-10-28 06:13:00,
2013-10-28 02:43:00,38.0,38.0,-100.00,SE,129,0.0,2.0,99,0.00,,,0.00,0.000000,,2013-10-28 06:43:00,
2013-10-28 02:52:00,38.0,38.0,-100.00,SE,129,0.0,2.0,99,0.00,,,0.00,0.000000,,2013-10-28 06:52:00,
2013-10-28 03:02:00,38.0,38.0,-100.00,SE,129,0.0,2.0,99,0.00,,,0.00,0.000000,,2013-10-28 07:02:00,
2013-10-28 03:12:00,38.0,38.0,-100.00,SE,129,0.0,2.0,99,0.00,,,0.00,0.000000,,2013-10-28 07:12:00,
2013-10-28 03:42:00,38.0,38.0,-100.00,ENE,63,1.0,2.0,99,0.00,,,0.00,0.000000,,2013-10-28 07:42:00,
2013-10-28 03:52:00,38.0,38.0,-100.00,ENE,63,1.0,2.0,99,0.00,,,0.00,0.000000,,2013-10-28 07:52:00,
2013-10-28 04:02:00,38.0,38.0,-100.00,ENE,63,1.0,2.0,99,0.00,,,0.00,0.000000,,2013-10-28 08:02:00,
2013-10-28 04:12:00,38.0,38.0,-100.00,ENE,63,1.0,2.0,99,0.00,,,0.00,0.000000,,2013-10-28 08:12:00,
2013-10-28 04:42:00,40.0,40.0,-100.00,WSW,258,1.0,3.0,100,-99.99,,,0.00,0.000000,,2013-10-28 08:42:00,
2013-10-28 04:52:00,40.0,40.0,-100.00,WSW,258,1.0,3.0,100,-99.99,,,0.00,0.000000,,2013-10-28 08:52:00,
2013-10-28 05:02:00,40.0,40.0,-100.00,WSW,258,1.0,3.0,100,-99.99,,,0.00,0.000000,,2013-10-28 09:02:00,
2013-10-28 05:12:00,40.0,40.0,-100.00,WSW,258,1.0,3.0,100,-99.99,,,0.00,0.000000,,2013-10-28 09:12:00,
2013-10-28 05:43:00,41.0,40.0,-100.00,ENE,72,1.0,2.0,98,0.00,,,0.00,0.000000,,2013-10-28 09:43:00,
2013-10-28 05:53:00,41.0,40.0,-100.00,ENE,72,1.0,2.0,98,0.00,,,0.00,0.000000,,2013-10-28 09:53:00,
2013-10-28 06:03:00,41.0,40.0,-100.00,ENE,72,1.0,2.0,98,0.00,,,0.00,0.000000,,2013-10-28 10:03:00,
2013-10-28 06:13:00,41.0,40.0,-100.00,ENE,72,1.0,2.0,98,0.00,,,0.00,0.000000,,2013-10-28 10:13:00,
2013-10-28 06:43:00,42.0,41.0,-100.00,SSE,154,0.0,0.0,98,-99.99,,,0.00,0.000000,,2013-10-28 10:43:00,
2013-10-28 06:53:00,42.0,41.0,-100.00,SSE,154,0.0,0.0,98,-99.99,,,0.00,0.000000,,2013-10-28 10:53:00,
2013-10-28 07:03:00,42.0,41.0,-100.00,SSE,154,0.0,0.0,98,-99.99,,,0.00,0.000000,,2013-10-28 11:03:00,
2013-10-28 07:12:00,42.0,41.0,-100.00,SSE,154,0.0,0.0,98,-99.99,,,0.00,0.000000,,2013-10-28 11:12:00,
2013-10-28 07:43:00,43.0,42.0,-100.00,North,1,0.0,3.0,96,0.00,,,0.00,0.000000,,2013-10-28 11:43:00,
2013-10-28 07:52:00,43.0,42.0,-100.00,North,1,0.0,3.0,96,0.00,,,0.00,0.000000,,2013-10-28 11:52:00,
2013-10-28 08:02:00,43.0,42.0,-100.00,North,1,0.0,3.0,96,0.00,,,0.00,0.000000,,2013-10-28 12:02:00,
2013-10-28 08:12:00,43.0,42.0,-100.00,North,1,0.0,3.0,96,0.00,,,0.00,0.000000,,2013-10-28 12:12:00,
2013-10-28 08:42:00,44.0,43.0,-100.00,ESE,105,0.0,0.0,97,-99.99,,,0.00,1.000000,,2013-10-28 12:42:00,
2013-10-28 08:52:00,44.0,43.0,-100.00,ESE,105,0.0,0.0,97,-99.99,,,0.00,1.000000,,2013-10-28 12:52:00,
2013-10-28 09:01:00,44.0,43.0,-100.00,ESE,105,0.0,0.0,97,-99.99,,,0.00,1.000000,,2013-10-28 13:01:00,
2013-10-28 09:11:00,44.0,43.0,-100.00,ESE,105,0.0,0.0,97,-99.99,,,0.00,1.000000,,2013-10-28 13:11:00,
2013-10-28 09:42:00,44.0,44.0,-100.00,ESE,110,0.0,0.0,99,0.01,,,0.01,9.000000,,2013-10-28 13:42:00,
2013-10-28 09:52:00,44.0,44.0,-100.00,ESE,110,0.0,0.0,99,0.01,,,0.01,9.000000,,2013-10-28 13:52:00,
2013-10-28 10:02:00,44.0,44.0,-100.00,ESE,110,0.0,0.0,99,0.01,,,0.01,9.000000,,2013-10-28 14:02:00,
2013-10-28 10:11:00,44.0,44.0,-100.00,ESE,110,0.0,0.0,99,0.01,,,0.01,9.000000,,2013-10-28 14:11:00,
2013-10-28 10:42:00,45.0,45.0,-100.00,North,357,0.0,0.0,100,0.10,,,0.11,9.000000,,2013-10-28 14:42:00,
2013-10-28 10:52:00,45.0,45.0,-100.00,North,357,0.0,0.0,100,0.10,,,0.11,9.000000,,2013-10-28 14:52:00,
2013-10-28 11:02:00,45.0,45.0,-100.00,North,357,0.0,0.0,100,0.10,,,0.11,9.000000,,2013-10-28 15:02:00,
2013-10-28 11:11:00,45.0,45.0,-100.00,North,357,0.0,0.0,100,0.10,,,0.11,9.000000,,2013-10-28 15:11:00,
2013-10-28 11:43:00,46.0,46.0,-100.00,SSW,193,0.0,0.0,100,0.05,,,-99.99,22.000000,,2013-10-28 15:43:00,
2013-10-28 11:53:00,46.0,46.0,-100.00,SSW,193,0.0,0.0,100,0.05,,,-99.99,22.000000,,2013-10-28 15:53:00,
2013-10-28 12:03:00,46.0,46.0,-100.00,SSW,193,0.0,0.0,100,0.05,,,-99.99,22.000000,,2013-10-28 16:03:00,
2013-10-28 12:13:00,46.0,46.0,-100.00,SSW,193,0.0,0.0,100,0.05,,,-99.99,22.000000,,2013-10-28 16:13:00,
2013-10-28 12:43:00,48.0,48.0,-100.00,NNE,26,0.0,2.0,100,0.01,,,0.17,35.000000,,2013-10-28 16:43:00,
2013-10-28 12:53:00,48.0,48.0,-100.00,NNE,26,0.0,2.0,100,0.01,,,0.17,35.000000,,2013-10-28 16:53:00,
2013-10-28 13:03:00,48.0,48.0,-100.00,NNE,26,0.0,2.0,100,0.01,,,0.17,35.000000,,2013-10-28 17:03:00,
2013-10-28 13:12:00,48.0,48.0,-100.00,NNE,26,0.0,2.0,100,0.01,,,0.17,35.000000,,2013-10-28 17:12:00,
2013-10-28 13:42:00,50.0,50.0,-100.00,NNE,30,1.0,2.0,100,0.01,,,0.18,65.000000,,2013-10-28 17:42:00,
2013-10-28 13:52:00,50.0,50.0,-100.00,NNE,30,1.0,2.0,100,0.01,,,0.18,65.000000,,2013-10-28 17:52:00,
2013-10-28 14:02:00,50.0,50.0,-100.00,NNE,30,1.0,2.0,100,0.01,,,0.18,65.000000,,2013-10-28 18:02:00,
2013-10-28 14:12:00,50.0,50.0,-100.00,NNE,30,1.0,2.0,100,0.01,,,0.18,65.000000,,2013-10-28 18:12:00,
2013-10-28 14:42:00,55.0,54.0,-100.00,East,96,2.0,3.0,97,0.00,,,0.18,159.000000,,2013-10-28 18:42:00,
2013-10-28 14:52:00,55.0,54.0,-100.00,East,96,2.0,3.0,97,0.00,,,0.18,159.000000,,2013-10-28 18:52:00,
2013-10-28 15:02:00,55.0,54.0,-100.00,East,96,2.0,3.0,97,0.00,,,0.18,159.000000,,2013-10-28 19:02:00,
2013-10-28 15:11:00,55.0,54.0,-100.00,East,96,2.0,3.0,97,0.00,,,0.18,159.000000,,2013-10-28 19:11:00,
2013-10-28 15:42:00,54.0,53.0,-100.00,ENE,60,1.0,5.0,98,0.00,,,0.18,75.000000,,2013-10-28 19:42:00,
2013-10-28 15:53:00,54.0,53.0,-100.00,ENE,60,1.0,5.0,98,0.00,,,0.18,75.000000,,2013-10-28 19:53:00,
2013-10-28 16:02:00,54.0,53.0,-100.00,ENE,60,1.0,5.0,98,0.00,,,0.18,75.000000,,2013-10-28 20:02:00,
2013-10-28 16:12:00,54.0,53.0,-100.00,ENE,60,1.0,5.0,98,0.00,,,0.18,75.000000,,2013-10-28 20:12:00,
2013-10-28 16:42:00,55.0,55.0,-100.00,ENE,77,1.0,3.0,99,0.00,,,0.18,57.000000,,2013-10-28 20:42:00,
2013-10-28 16:52:00,55.0,55.0,-100.00,ENE,77,1.0,3.0,99,0.00,,,0.18,57.000000,,2013-10-28 20:52:00,
2013-10-28 17:02:00,55.0,55.0,-100.00,ENE,77,1.0,3.0,99,0.00,,,0.18,57.000000,,2013-10-28 21:02:00,
2013-10-28 17:11:00,55.0,55.0,-100.00,ENE,77,1.0,3.0,99,0.00,,,0.18,57.000000,,2013-10-28 21:11:00,
2013-10-28 17:43:00,55.0,55.0,-100.00,ENE,58,0.0,2.0,99,0.00,,,0.18,40.000000,,2013-10-28 21:43:00,
2013-10-28 17:54:00,55.0,55.0,-100.00,ENE,58,0.0,2.0,99,0.00,,,0.18,40.000000,,2013-10-28 21:54:00,
2013-10-28 18:04:00,55.0,55.0,-100.00,ENE,58,0.0,2.0,99,0.00,,,0.18,40.000000,,2013-10-28 22:04:00,
2013-10-28 18:13:00,55.0,55.0,-100.00,ENE,58,0.0,2.0,99,0.00,,,0.18,40.000000,,2013-10-28 22:13:00,
2013-10-28 18:43:00,54.0,54.0,-100.00,ENE,64,0.0,0.0,100,0.01,,,0.19,23.000000,,2013-10-28 22:43:00,
2013-10-28 18:53:00,54.0,54.0,-100.00,ENE,64,0.0,0.0,100,0.01,,,0.19,23.000000,,2013-10-28 22:53:00,
2013-10-28 19:03:00,54.0,54.0,-100.00,ENE,64,0.0,0.0,100,0.01,,,0.19,23.000000,,2013-10-28 23:03:00,
2013-10-28 19:12:00,54.0,54.0,-100.00,ENE,64,0.0,0.0,100,0.01,,,0.19,23.000000,,2013-10-28 23:12:00,
2013-10-28 19:43:00,52.0,52.0,-100.00,SE,132,0.0,0.0,100,0.01,,,0.20,1.000000,,2013-10-28 23:43:00,
2013-10-28 19:53:00,52.0,52.0,-100.00,SE,132,0.0,0.0,100,0.01,,,0.20,1.000000,,2013-10-28 23:53:00,
2013-10-28 20:01:00,52.0,52.0,-100.00,SE,132,0.0,0.0,100,0.01,,,0.20,1.000000,,2013-10-29 00:01:00,
2013-10-28 20:11:00,52.0,52.0,-100.00,SE,132,0.0,0.0,100,0.01,,,0.20,1.000000,,2013-10-29 00:11:00,
2013-10-28 20:42:00,52.0,52.0,-100.00,ESE,106,0.0,0.0,100,0.00,,,0.20,0.000000,,2013-10-29 00:42:00,
2013-10-28 20:52:00,52.0,52.0,-100.00,ESE,106,0.0,0.0,100,0.00,,,0.20,0.000000,,2013-10-29 00:52:00,
2013-10-28 21:01:00,52.0,52.0,-100.00,ESE,106,0.0,0.0,100,0.00,,,0.20,0.000000,,2013-10-29 01:01:00,
2013-10-28 21:11:00,52.0,52.0,-100.00,ESE,106,0.0,0.0,100,0.00,,,0.20,0.000000,,2013-10-29 01:11:00,
2013-10-28 21:53:00,52.0,52.0,-100.00,SSE,156,0.0,0.0,100,0.00,,,0.20,0.000000,,2013-10-29 01:53:00,
2013-10-28 22:02:00,52.0,52.0,-100.00,SSE,156,0.0,0.0,100,0.00,,,0.20,0.000000,,2013-10-29 02:02:00,
2013-10-28 22:11:00,52.0,52.0,-100.00,SSE,156,0.0,0.0,100,0.00,,,0.20,0.000000,,2013-10-29 02:11:00,
2013-10-28 22:44:00,52.0,52.0,-100.00,ENE,65,0.0,0.0,100,0.01,,,0.21,0.000000,,2013-10-29 02:44:00,
2013-10-28 22:54:00,52.0,52.0,-100.00,ENE,65,0.0,0.0,100,0.01,,,0.21,0.000000,,2013-10-29 02:54:00,
2013-10-28 23:03:00,52.0,52.0,-100.00,ENE,65,0.0,0.0,100,0.01,,,0.21,0.000000,,2013-10-29 03:03:00,
2013-10-28 23:14:00,52.0,52.0,-100.00,ENE,65,0.0,0.0,100,0.01,,,0.21,0.000000,,2013-10-29 03:14:00,
2013-10-28 23:40:00,-999.0,-99.9,-100.00,West,266,0.0,2.0,100,0.01,,,0.22,0.000000,,2013-10-29 03:40:00,
2013-10-28 23:48:00,52.0,52.0,-100.00,West,266,0.0,2.0,100,0.01,,,0.22,0.000000,,2013-10-29 03:48:00,
2013-10-28 23:56:00,52.0,52.0,-100.00,West,266,0.0,2.0,100,0.01,,,0.22,0.000000,,2013-10-29 03:56:00,